Вернуться в каталог

TIANMU-1 14

АктивенПогодаSSO
NORAD 58648·PAYLOAD·🇨🇳 China

Запущен Dec 25, 2023 с Jiuquan Satellite Launch Center

Loading…

Ближайшие Пролёты (ближайшие 24 часа)

TLE

СвежийSource: Space-Track

Эпоха: Sep 15, 2026, 00:04 UTC

1 58648U 23205D   26258.00309870  .00004978  00000-0  18785-3 0  9993
2 58648  97.3385 277.3177 0007654  31.5510 328.6187 15.27460626151213

Отслеживайте TIANMU-1 14 в реальном времени с AllMySat

Download on the App Store